User: anonymous   Login
Location: Ayer Observatory
(42.2600°N, 71.0700°W)
Time: 07:18:56
(UTC-04:00)
Language:

SO-50 - Orbit

View from above orbital plane
View from above orbital plane
View from above satellite
View from above satellite

Ground track
Ground track

The orbit data is extracted from the following two-line orbital elements,

1 27607U 02058C   19203.77288117 -.00000046 +00000-0 +14515-4 0  9994
2 27607 064.5558 305.3974 0080159 249.9652 109.2808 14.75559842891936
Epoch (UTC): 22 July 2019 18:32:56
Eccentricity: 0.0080159
inclination: 64.5558°
perigee height: 587 km
apogee height: 699 km
right ascension of ascending node: 305.3974°
argument of perigee: 249.9652°
revolutions per day: 14.75559842
mean anomaly at epoch: 109.2808°
orbit number at epoch: 89193

The dashed part of the orbit path shows where the satellite is in the earth's shadow,  

DLR